Hourly Data Report for October 06, 2016

All times are specified in Local Standard Time (LST). Add 1 hour to adjust for Daylight Saving Time where and when it is observed.

MONCTON INTL A
NEW BRUNSWICK

46°06'44.000" N
64°40'43.000" W
70.70 m
8103201
71705
YQM

Download Data

Hourly Data (October 2016)
Hourly Data Report for October 6, 2016
Temp Definition
°C
Dew Point Temp Definition
°C
Rel Hum Definition
%
Wind Dir Definition
10's deg

Wind Spd Definition
km/h
Visibility Definition
km
Stn Press Definition
kPa
Hmdx Definition


Wind Chill Definition


Weather Definition


TIME
00:00 Legend Double Dagger 7.5 6.9 96 23 14 24.1 101.52     LegendNANA
01:00 Legend Double Dagger 6.8 6.2 96 24 11 24.1 101.54     LegendNANA
02:00 Legend Double Dagger 5.7 5.3 97 23 11 1.2 101.53     Fog
03:00 Legend Double Dagger 6.7 6.4 98 24 13 24.1 101.48     LegendNANA
04:00 Legend Double Dagger 5.7 5.4 98 22 16 16.1 101.46     LegendNANA
05:00 Legend Double Dagger 5.5 5.2 98 23 13 24.1 101.50     Clear
06:00 Legend Double Dagger 5.5 5.2 98 24 17 24.1 101.49     LegendNANA
07:00 Legend Double Dagger 5.3 5.0 98 22 13 24.1 101.53     LegendNANA
08:00 Legend Double Dagger 8.0 7.4 96 22 13 24.1 101.52     Clear
09:00 Legend Double Dagger 11.0 9.1 88 24 14 24.1 101.53     LegendNANA
10:00 Legend Double Dagger 14.1 10.4 78 22 10 24.1 101.54     LegendNANA
11:00 Legend Double Dagger 16.9 10.6 66 24 9 24.1 101.49     Clear
12:00 Legend Double Dagger 19.0 8.8 51 24 8 24.1 101.42     LegendNANA
13:00 Legend Double Dagger 20.1 9.8 51 23 17 24.1 101.36     LegendNANA
14:00 Legend Double Dagger 21.1 10.1 49 24 14 24.1 101.28     Clear
15:00 Legend Double Dagger 21.1 10.1 49 25 18 24.1 101.26     LegendNANA
16:00 Legend Double Dagger 20.8 9.2 47 23 20 24.1 101.24     LegendNANA
17:00 Legend Double Dagger 19.4 9.1 51 23 17 24.1 101.23     Clear
18:00 Legend Double Dagger 16.6 9.1 61 27 13 24.1 101.30     LegendNANA
19:00 Legend Double Dagger 15.0 9.4 69 21 11 24.1 101.32     LegendNANA
20:00 Legend Double Dagger 12.7 9.6 81 20 13 24.1 101.33     Clear
21:00 Legend Double Dagger 11.7 9.5 86 24 13 24.1 101.38     LegendNANA
22:00 Legend Double Dagger 11.8 9.9 88 23 15 24.1 101.40     LegendNANA
23:00 Legend Double Dagger 11.0 9.8 92 22 16 24.1 101.39     Clear

Notes on Data Quality.

Legend

  • E = Estimated
  • M = Missing
  • NA = Not Available
  • ‡ = Partner data that is not subject to review by the National Climate Archives
Date modified: